Flag for Brazil Weather past 2 weeks in Manaus, Amazonas, Brazil

Now
79 °F

Clear.


Feels Like: 82 °F
Forecast: 75 / 88 °F
Wind: 6 mph from East

Location: Manaus Aeroporto

Current Time: Dec 20, 2014 at 9:13:13 PM

Latest Report: Dec 20, 2014 at 9:00 PM


Visibility: 10 mi

Pressure: 29.80 "Hg

Humidity: 84%

Dew point: 73 °F

Location of ManausLocation

Historic Weather in Manaus — Graph

°F

Manaus temperature yesterday

Maximum temperature yesterday: 86 °F (at 1:00 PM)
Minimum temperature yesterday: 73 °F (at 7:00 PM)
Average temperature yesterday: 79 °F

Past Weeks' High & Low Weather Summary

 TemperatureHumidityPressure
High91 °F (Dec 9, 2:00 PM)94% (Dec 6, 1:00 AM)29.98 "Hg (Dec 6, 1:00 AM)
Low72 °F (Dec 16, 1:00 AM)52% (Dec 9, 2:00 PM)29.68 "Hg (Dec 9, 5:00 PM)
Average79 °F82%29.83 "Hg
* Reported Dec 5 8:00 PM — Dec 20 8:00 PM, Manaus, Weather by CustomWeather, © 2014

Note: Actual official high and low records may vary slightly from our data, if they occured in-between our weather recording intervals... More about our weather records

Advertising

Manaus weather history for previous 24 hours

 ConditionsComfort  
Time TempWeatherWind HumidityBarometerVisibility
8:00 PM
Dec 20
79 °FPassing clouds.8 mph79%29.80 "HgN/A
7:00 PM81 °FPassing clouds.6 mph79%29.77 "HgN/A
6:00 PM84 °FScattered clouds.5 mph66%29.77 "HgN/A
5:00 PM86 °FScattered clouds.6 mph62%29.74 "HgN/A
4:00 PM84 °FScattered clouds.5 mph74%29.74 "HgN/A
3:00 PM84 °FLight rain. Broken clouds.5 mph74%N/AN/A
2:00 PM86 °FPartly sunny.8 mph66%29.80 "HgN/A
1:00 PM86 °FBroken clouds.9 mph66%29.83 "HgN/A
12:00 PM84 °FBroken clouds.8 mph70%29.86 "HgN/A
11:00 AM82 °FPartly sunny.3 mph74%29.89 "HgN/A
10:00 AM81 °FBroken clouds.6 mph79%29.89 "HgN/A
9:00 AM79 °FBroken clouds.6 mph84%29.89 "HgN/A
8:00 AM75 °FBroken clouds.8 mph94%29.86 "HgN/A
7:00 AM75 °FPartly sunny.7 mph89%29.86 "HgN/A
6:00 AM73 °FBroken clouds.3 mph94%29.83 "HgN/A
5:00 AM75 °FLight rain. Partly cloudy.No wind89%N/AN/A
4:00 AM73 °FThundershowers. Partly cloudy.2 mph94%N/AN/A
3:00 AM73 °FThunderstorms. Partly cloudy.2 mph94%29.80 "HgN/A
2:00 AM75 °FPassing clouds.5 mph94%29.80 "HgN/A
1:00 AM77 °FPassing clouds.5 mph89%29.80 "HgN/A
12:00 AM77 °FPartly cloudy.5 mph89%29.83 "HgN/A
11:00 PM
Dec 19
77 °FPartly cloudy.2 mph94%29.86 "HgN/A
10:00 PM77 °FPassing clouds.3 mph89%29.86 "HgN/A
9:00 PM75 °FPassing clouds.1 mph94%29.83 "HgN/A
Weather by CustomWeather, © 2014

See weather overviewHow to use our weather pages